Location: *
(45.9500°N, 9.0833°E)
Time: 19:13:18
(UTC+00:00)

Vanguard 2 Rocket - Pass Details

Date: 20 June 2021
Orbit: 555 x 3325 km, 32.9° (Epoch: 30 July)

Event Time Altitude Azimuth Distance (km) Brightness Sun altitude
Rises 23:22:00 0° 273° (W) 6,759 11.4 -20.6°
Reaches altitude 10° 23:27:48 10° 264° (W) 5,336 10.7 -20.6°
Maximum altitude 23:39:07 28° 214° (SW) 3,060 9.1 -20.5°
Enters shadow 23:40:48 27° 200° (SSW) 2,951 8.9 -20.5°
Drops below altitude 10° 23:46:36 10° 159° (SSE) 3,435 - -20.4°
Sets 23:49:27 0° 147° (SSE) 4,069 - -20.4°
